Hourly Weather Andora

Today, 26 November, Thursday

Time Temperature Precipitation Wind Pressure Humidity
00:00 +2°C° 0 mm 2 mps 621 mmHg 92%
01:00 +2°C° 0 mm 2 mps 621 mmHg 92%
02:00 +2°C° 0 mm 2 mps 621 mmHg 92%
03:00 +1°C° 0 mm 2 mps 621 mmHg 92%
04:00 +1°C° 0 mm 2 mps 621 mmHg 92%
05:00 +1°C° 0 mm 2 mps 621 mmHg 92%
06:00 +1°C° 0 mm 2 mps 621 mmHg 92%
07:00 +2°C° 0 mm 2 mps 621 mmHg 89%
08:00 +3°C° 0 mm 2 mps 622 mmHg 86%
09:00 +4°C° 0 mm 2 mps 622 mmHg 83%
10:00 +5°C° 0 mm 2 mps 623 mmHg 79%
11:00 +6°C° 0 mm 2 mps 623 mmHg 75%
12:00 +7°C° 0 mm 2 mps 623 mmHg 71%
13:00 +7°C° 0 mm 2 mps 623 mmHg 73%
14:00 +6°C° 0 mm 2 mps 623 mmHg 74%
15:00 +6°C° 0 mm 2 mps 623 mmHg 76%
16:00 +5°C° 0 mm 2 mps 622 mmHg 81%
17:00 +5°C° 0 mm 1 mps 622 mmHg 86%
18:00 +4°C° 0 mm 1 mps 622 mmHg 91%
19:00 +4°C° 0 mm 1 mps 622 mmHg 90%
20:00 +4°C° 0 mm 1 mps 622 mmHg 89%
21:00 +4°C° 0 mm 1 mps 622 mmHg 88%
22:00 +4°C° 0 mm 1 mps 622 mmHg 88%
23:00 +4°C° 0 mm 1 mps 622 mmHg 87%

Tomorrow, 27 November, Friday

Time Temperature Precipitation Wind Pressure Humidity
00:00 +4°C° 0 mm 1 mps 622 mmHg 86%
01:00 +4°C° 0 mm 1 mps 621 mmHg 86%
02:00 +4°C° 0 mm 1 mps 621 mmHg 85%
03:00 +3°C° 0 mm 1 mps 621 mmHg 84%
04:00 +4°C° 0 mm 1 mps 621 mmHg 84%
05:00 +4°C° 0 mm 1 mps 621 mmHg 84%
06:00 +4°C° 0 mm 1 mps 621 mmHg 84%
07:00 +4°C° 0.1 mm 1 mps 621 mmHg 84%
08:00 +5°C° 0.1 mm 1 mps 621 mmHg 83%
09:00 +6°C° 0.1 mm 1 mps 621 mmHg 83%
10:00 +7°C° 0 mm 1 mps 621 mmHg 78%
11:00 +8°C° 0 mm 1 mps 621 mmHg 73%
12:00 +9°C° 0 mm 1 mps 621 mmHg 68%
13:00 +8°C° 0.1 mm 1 mps 621 mmHg 72%
14:00 +8°C° 0.1 mm 1 mps 620 mmHg 75%
15:00 +7°C° 0.1 mm 1 mps 620 mmHg 78%
16:00 +6°C° 0.1 mm 1 mps 620 mmHg 83%
17:00 +5°C° 0.1 mm 1 mps 619 mmHg 87%
18:00 +4°C° 0.1 mm 1 mps 619 mmHg 91%
19:00 +4°C° 0 mm 1 mps 619 mmHg 91%
20:00 +4°C° 0 mm 1 mps 618 mmHg 91%
21:00 +4°C° 0 mm 1 mps 618 mmHg 91%
22:00 +4°C° 0.1 mm 1 mps 618 mmHg 91%
23:00 +4°C° 0.1 mm 1 mps 618 mmHg 90%

Day after tomorrow, 28 November, Saturday

Time Temperature Precipitation Wind Pressure Humidity
00:00 +4°C° 0.1 mm 1 mps 618 mmHg 89%
01:00 +3°C° 0.1 mm 1 mps 617 mmHg 90%
02:00 +3°C° 0.1 mm 1 mps 617 mmHg 90%
03:00 +3°C° 0.1 mm 1 mps 617 mmHg 90%
04:00 +3°C° 0.1 mm 1 mps 616 mmHg 91%
05:00 +3°C° 0.1 mm 1 mps 616 mmHg 91%
06:00 +2°C° 0.1 mm 1 mps 616 mmHg 92%
07:00 +3°C° 0.4 mm 1 mps 616 mmHg 91%
08:00 +4°C° 0.4 mm 1 mps 617 mmHg 89%
09:00 +5°C° 0.4 mm 1 mps 617 mmHg 88%
10:00 +5°C° 0.7 mm 1 mps 617 mmHg 89%
11:00 +5°C° 0.7 mm 1 mps 617 mmHg 89%
12:00 +5°C° 0.7 mm 1 mps 617 mmHg 90%
13:00 +5°C° 0.6 mm 1 mps 617 mmHg 91%
14:00 +5°C° 0.6 mm 1 mps 617 mmHg 92%
15:00 +5°C° 0.6 mm 1 mps 616 mmHg 93%
16:00 +4°C° 0.4 mm 1 mps 617 mmHg 94%
17:00 +4°C° 0.4 mm 1 mps 617 mmHg 94%
18:00 +4°C° 0.4 mm 1 mps 617 mmHg 95%
19:00 +4°C° 0.2 mm 1 mps 617 mmHg 95%
20:00 +3°C° 0.2 mm 1 mps 617 mmHg 95%
21:00 +2°C° 0.2 mm 2 mps 618 mmHg 95%
22:00 +3°C° 0.1 mm 1 mps 618 mmHg 94%
23:00 +3°C° 0.1 mm 1 mps 618 mmHg 93%

29 November, Sunday

Time Temperature Precipitation Wind Pressure Humidity
00:00 +2°C° 0.1 mm 1 mps 618 mmHg 92%
01:00 +2°C° 0 mm 1 mps 618 mmHg 91%
02:00 +2°C° 0 mm 1 mps 618 mmHg 90%
03:00 +2°C° 0 mm 1 mps 618 mmHg 89%
04:00 +2°C° 0 mm 1 mps 618 mmHg 87%
05:00 +2°C° 0 mm 1 mps 618 mmHg 86%
06:00 +2°C° 0 mm 1 mps 618 mmHg 85%
07:00 +3°C° 0 mm 1 mps 619 mmHg 82%
08:00 +3°C° 0 mm 0 mps 620 mmHg 79%
09:00 +5°C° 0 mm 0 mps 620 mmHg 76%
10:00 +6°C° 0 mm 0 mps 621 mmHg 73%
11:00 +8°C° 0 mm 1 mps 621 mmHg 69%
12:00 +9°C° 0 mm 1 mps 622 mmHg 66%
13:00 +8°C° 0 mm 1 mps 622 mmHg 69%
14:00 +8°C° 0 mm 1 mps 621 mmHg 73%
15:00 +8°C° 0 mm 1 mps 621 mmHg 76%
16:00 +6°C° 0 mm 1 mps 621 mmHg 81%
17:00 +5°C° 0 mm 1 mps 620 mmHg 86%
18:00 +3°C° 0 mm 1 mps 620 mmHg 92%
19:00 +3°C° 0 mm 1 mps 620 mmHg 89%
20:00 +3°C° 0 mm 1 mps 620 mmHg 87%
21:00 +2°C° 0 mm 1 mps 620 mmHg 84%
22:00 +2°C° 0 mm 1 mps 620 mmHg 79%
23:00 +2°C° 0 mm 1 mps 620 mmHg 73%

30 November, Monday

Time Temperature Precipitation Wind Pressure Humidity
00:00 +2°C° 0 mm 1 mps 620 mmHg 68%
01:00 +2°C° 0 mm 1 mps 620 mmHg 64%
02:00 +2°C° 0 mm 1 mps 620 mmHg 61%
03:00 +2°C° 0 mm 1 mps 620 mmHg 58%
04:00 +2°C° 0 mm 1 mps 620 mmHg 56%
05:00 +2°C° 0 mm 1 mps 621 mmHg 54%
06:00 +2°C° 0 mm 1 mps 621 mmHg 53%
07:00 +3°C° 0 mm 1 mps 622 mmHg 50%
08:00 +5°C° 0 mm 1 mps 623 mmHg 48%
09:00 +5°C° 0 mm 0 mps 623 mmHg 46%
10:00 +7°C° 0 mm 1 mps 624 mmHg 46%
11:00 +8°C° 0 mm 1 mps 624 mmHg 46%
12:00 +9°C° 0 mm 1 mps 625 mmHg 45%
13:00 +9°C° 0 mm 1 mps 624 mmHg 52%
14:00 +8°C° 0 mm 1 mps 624 mmHg 59%
15:00 +7°C° 0 mm 1 mps 624 mmHg 66%
16:00 +5°C° 0 mm 1 mps 623 mmHg 73%
17:00 +4°C° 0 mm 1 mps 623 mmHg 79%
18:00 +1°C° 0 mm 0 mps 623 mmHg 85%
19:00 +1°C° 0 mm 0 mps 623 mmHg 86%
20:00 +1°C° 0 mm 0 mps 623 mmHg 87%
21:00 +1°C° 0 mm 0 mps 623 mmHg 88%
22:00 +1°C° 0 mm 0 mps 623 mmHg 88%
23:00 +1°C° 0 mm 0 mps 623 mmHg 89%

1 December, Tuesday

Time Temperature Precipitation Wind Pressure Humidity
00:00 +1°C° 0 mm 0 mps 624 mmHg 89%
01:00 +2°C° 0 mm 1 mps 623 mmHg 88%
02:00 +1°C° 0 mm 1 mps 623 mmHg 87%
03:00 +1°C° 0 mm 1 mps 623 mmHg 85%
04:00 0°C° 0 mm 0 mps 623 mmHg 85%
05:00 0°C° 0 mm 0 mps 623 mmHg 84%
06:00 0°C° 0 mm 0 mps 623 mmHg 84%
07:00 +1°C° 0 mm 0 mps 624 mmHg 79%
08:00 +2°C° 0 mm 0 mps 625 mmHg 74%
09:00 +3°C° 0 mm 0 mps 625 mmHg 69%
10:00 +5°C° 0 mm 0 mps 626 mmHg 65%
11:00 +7°C° 0 mm 1 mps 626 mmHg 62%
12:00 +8°C° 0 mm 1 mps 626 mmHg 59%
13:00 +7°C° 0 mm 1 mps 626 mmHg 64%
14:00 +7°C° 0 mm 1 mps 626 mmHg 70%
15:00 +6°C° 0 mm 1 mps 625 mmHg 76%
16:00 +5°C° 0 mm 1 mps 625 mmHg 81%
17:00 +2°C° 0 mm 0 mps 625 mmHg 87%
18:00 +1°C° 0 mm 0 mps 624 mmHg 93%
19:00 0°C° 0 mm 0 mps 624 mmHg 91%
20:00 0°C° 0 mm 0 mps 624 mmHg 89%
21:00 0°C° 0 mm 0 mps 624 mmHg 88%
22:00 0°C° 0 mm 1 mps 624 mmHg 84%
23:00 0°C° 0 mm 1 mps 624 mmHg 80%
Show more

We Need Your Consent

Meteoprog and our Service Providers may store and access personal data such as cookies, device identifiers or other similar technologies on your device and process such data to personalise content and ads, as well as provide social media features and to analyse the traffic.

  • Store and/or access information on your device

    Cookies, device identifiers or other information can be stored or accessed on your device for the purposes indicated above.

  • Personalised ads and content, ad and content measurement, audience insights, and products development

    Ads and content can be personalised based on a profile. More data can be added to better personalise ads and content. Ad and content performance can be measured. Insights about the audience who saw the ads and content can be derived. Such data can be used to develop or improve user’s experience, systems and software.

By clicking ‘I Agree’ you will allow the use of indicated cookies, device identifiers, web beacons or other similar technologies. Your settings can be changed in the browser on your device.

For certain purposes, legitimate interests may be relied on, rather than consent. You can read more about this in our Privacy and Cookie Policy.